{"data":{"norad_id":47815,"epoch":"2026-09-20T03:06:46.116288Z","epoch_age_seconds":61220,"freshness":"FRESH","line1":"1 47815U 21018AE  26263.12970042 -.00000722  00000+0 -11505-4 0  9999","line2":"2 47815  53.1588  57.7983 0001435  62.3173 297.7974 15.31702719306517","mean_motion":15.31702719,"eccentricity":0.0001435,"inclination_deg":53.1588,"raan_deg":57.7983,"arg_perigee_deg":62.3173,"mean_anomaly_deg":297.7974,"bstar":-1.1505e-5,"rev_number":30651,"period_min":94.013021073706,"perigee_km":469.7490773544,"apogee_km":471.71470272584,"semimajor_km":6848.8688900401,"source":"CELESTRAK","updated_at":"2026-09-20T09:00:38.748776Z"}}